Regional Weather Roundup
Issued by NWS

Home | Current Version | Previous Version | Text Only | Print | Product List | Glossary Off
Versions: 1 2 3 4 5 6 7 8 9 10 11 12 13 14 15 16 17 18 19 20 21 22 23 24 25 26 27 28 29 30 31 32 33 34 35 36 37 38 39 40 41 42 43 44 45 46 47 48 49 50

000
ASUS43 KMPX 310310
RWRMN
WEATHER ROUNDUP FOR MINNESOTA
NATIONAL WEATHER SERVICE TWIN CITIES/CHANHASSEN MN
1000 PM CDT THU OCT 30 2014


NOTE: "FAIR" INDICATES FEW OR NO CLOUDS BELOW 12,000 FEET WITH NO
SIGNIFICANT WEATHER AND/OR OBSTRUCTIONS TO VISIBILITY. N/A MEANS
CURRENT SKY AND/OR WEATHER CONDITIONS ARE NOT AVAILABLE.

MNZ060>063-068>070-310400-
   Twin Cities Metro

CITY           SKY/WX    TMP DP  RH WIND       PRES   REMARKS
TWIN CITIES    MOCLDY    37  14  38 N24G38    30.30R
ST PAUL        CLOUDY    37  15  40 N23G39    30.30R
CRYSTAL        PTCLDY    37  15  40 N20G30    30.30R
BLAINE         CLEAR     37  16  41 N18G29    30.31R
LAKEVILLE      CLOUDY    37  21  52 N25G33    30.27R
EDEN PRAIRIE   CLOUDY    38  18  44 N15G30    30.29R
SOUTH ST PAUL  CLOUDY    39  20  45 N23G30    30.28R
LAKE ELMO      FAIR      36  19  51 N22G32    30.29R
$$
MNZ001>005-007-008-013>017-022>024-027-028-310400-
   Northwest Minnesota

CITY           SKY/WX    TMP DP  RH WIND       PRES   REMARKS
BEMIDJI        CLOUDY    30  17  59 N12G17    30.42R WCI  20
HALLOCK        CLEAR     27  19  74 N12       30.55R WCI  16
ROSEAU         CLEAR     28  19  69 N10       30.51R WCI  19
WARROAD        CLOUDY    28  19  69 NW12      30.50R WCI  18
THIEF RVR FALL CLEAR     27  18  69 N12       30.50R WCI  16
CROOKSTON      CLEAR     27  19  74 N9        30.54R WCI  17
FOSSTON        CLEAR     23  19  86 N12       30.48R WCI  12
DETROIT LAKES  CLEAR     30  25  80 N9G18     30.47R WCI  22
MOORHEAD       CLEAR     28  25  86 N13       30.52R WCI  18
PARK RAPIDS    PTCLDY    28  17  63 N12       30.41R WCI  18
MAHNOMEN       FAIR      27  21  80 N10       30.47R WCI  17
$$
MNZ006-009>011-018-025>026-310400-
   North Central Minnesota

CITY           SKY/WX    TMP DP  RH WIND       PRES   REMARKS
BAUDETTE       MOCLDY    30  17  58 N20       30.46R WCI  17
FLAG ISLAND    CLOUDY    30  19  64 N26G35    30.49R WCI  16
INTL FALLS     CLOUDY    29  17  61 N21G28    30.41R WCI  16
WASKISH        MOCLDY    28  18  64 CALM      30.45R
BIG FORK       CLEAR     27  18  69 N8        30.39R WCI  18
LONGVILLE      PTCLDY    28  16  59 N10G18    30.39R WCI  19
GRAND RAPIDS   MOCLDY    28  16  59 N21G31    30.36R WCI  15
CRANE LAKE     CLOUDY    27  19  74 N13       30.39R WCI  16
ORR            CLOUDY    27  18  69 NW3       30.34R
COOK           CLOUDY    27  19  74 N7        30.35R WCI  19
WALKER         FAIR      28  15  57 N9G20     30.41R WCI  20
$$
MNZ012-019>021-037-310400-
   Northeast Minnesota

CITY           SKY/WX    TMP DP  RH WIND       PRES   REMARKS
DULUTH         MOCLDY    29  19  66 N25G37    30.26R WCI  14
ELY            MOCLDY    27  21  80 N10G18    30.30R WCI  17
HIBBING        MOCLDY    29  17  61 N17G26    30.34R WCI  17
EVELETH        PTCLDY    28  19  69 N10G24    30.33R WCI  19
DULUTH HARBOR  PTCLDY    34  23  64 NW24G36   30.28R WCI  21
TWO HARBORS    FLURRIES  30  25  80 NW10G23   30.22R WCI  21
SILVER BAY     PTCLDY    30  23  74 N16G22    30.22R WCI  19
GRAND MARAIS     N/A     32  24  72 N20G31    30.19R WCI  20
G MARAIS ARPRT CLOUDY    27  19  74 N24G32    30.15R WCI  12
$$
MNZ029>031-032-039>041-046>048-054>057-064-310400-
   West Central Minnesota

CITY           SKY/WX    TMP DP  RH WIND       PRES   REMARKS
FERGUS FALLS   FAIR      30  18  59 N13G22    30.48R WCI  20
WHEATON        CLEAR     28  21  74 NW15      30.50R WCI  17
MORRIS         CLEAR     30  23  74 NW14      30.44R WCI  20
ALEXANDRIA     CLEAR     32  21  64 N12G21    30.40R WCI  23
ELBOW LAKE     FAIR      30  21  68 N14G21    30.44R WCI  20
WADENA         CLEAR     28  18  64 N12G20    30.42R WCI  18
GLENWOOD       CLEAR     30  19  64 N13G20    30.40R WCI  20
APPLETON       CLEAR     32  25  74 NW10      30.45R WCI  24
BENSON         CLEAR     30  21  69 N9G16     30.43R WCI  22
ORTONVILLE     CLEAR     30  21  69 N13       30.47R WCI  20
MADISON        CLEAR     34  25  69 N13       30.46R WCI  25
WILLMAR        FAIR      34  19  55 N15       30.40R WCI  24
$$
MNZ033>034-036-042>043-049>051-058-059-310400-
   Central Minnesota

CITY           SKY/WX    TMP DP  RH WIND       PRES   REMARKS
ST CLOUD       FAIR      34  15  46 N12       30.36R WCI  25
SAUK CENTRE    FAIR      31  18  56 N14G22    30.39R WCI  21
PAYNESVILLE    CLEAR     29  17  61 NW12      30.38R WCI  19
AITKIN         CLEAR     30  16  55 N13G24    30.35R WCI  20
PINE RIVER     CLEAR     30  16  55 N18G25    30.41R WCI  18
BRAINERD       CLEAR     30  14  51 N20G28    30.38R WCI  17
STAPLES        CLEAR     28  16  59 N13G22    30.40R WCI  18
LONG PRAIRIE   FAIR      30  19  64 NW10G17   30.39R WCI  21
LITTLE FALLS   CLEAR     32  14  47 N9        30.38R WCI  24
LITCHFIELD     CLEAR     34  23  64 N15       30.37R WCI  24
BUFFALO        CLEAR     35  14  42 N22G32    30.35R WCI  23
MAPLE LAKE     CLEAR     35  19  53 N15G21    30.36R WCI  25
$$
MNZ037-044-045-052-053-310400-
   East Central Minnesota

CITY           SKY/WX    TMP DP  RH WIND       PRES   REMARKS
PRINCETON      PTCLDY    34  12  40 N16G29    30.35R WCI  23
MORA           CLEAR     32  14  47 N12G31    30.34R WCI  23
CAMBRIDGE      CLEAR     36  18  48 N9G22     30.31R
RUSH CITY      CLEAR     32  15  48 N12G24    30.31R WCI  23
MOOSE LAKE     PTCLDY    30  18  59 N17G25    30.31R WCI  18
HINCKLEY       FAIR      32  16  51 N15G33    30.32R WCI  22
CLOQUET        MOCLDY    28  18  64 N15G24    30.29R WCI  17
MCGREGOR       CLEAR     30  18  59 N16G24    30.35R WCI  19
$$
MNZ071>073-080-081-089-090-097-098-310400-
   Southwest Minnesota

CITY           SKY/WX    TMP DP  RH WIND       PRES   REMARKS
MONTEVIDEO     CLEAR     32  25  74 N12G21    30.44R WCI  23
GRANITE FALLS  CLEAR     33  22  64 NW13G20   30.43R WCI  23
CANBY          CLEAR     31  23  71 N12G17    30.46R WCI  22
MARSHALL       CLOUDY    34  19  55 N23       30.41R WCI  22
REDWOOD FALLS  MOCLDY    35  21  56 N13G25    30.38R WCI  26
OLIVIA         CLEAR     34  23  64 N12G21    30.38R WCI  25
PIPESTONE      CLOUDY    34  25  69 N14G24    30.40R WCI  24
WINDOM         CLOUDY    36  27  69 NW24G30   30.35R
WORTHINGTON    CLOUDY    34  23  64 N30G36    30.38R WCI  20
JACKSON        CLOUDY    36  28  75 N21G37    30.34R
TRACY          CLOUDY    34  25  69 N20G30    30.40R WCI  23
SLAYTON        CLOUDY    32  23  69 N20G28    30.39R WCI  20
$$
MNZ065>067-074>077-082>085-091>093-310400-
   South Central Minnesota

CITY           SKY/WX    TMP DP  RH WIND       PRES   REMARKS
MANKATO        CLOUDY    39  21  48 NW22G31   30.30R
NEW ULM        PTCLDY    37  23  56 N21G31    30.33R
ST JAMES       CLOUDY    39  25  56 NW18G31   30.35R
FAIRMONT       CLOUDY    39  25  56 N21G30    30.30R
GLENCOE        MOCLDY    37  22  54 N20G29    30.33R
FARIBAULT      CLOUDY    39  25  56 NW13G18   30.27R
OWATONNA       PTCLDY    41  25  52 N22G28    30.25R
WASECA         CLOUDY    37  23  56 NW18G24   30.28R
ALBERT LEA     CLOUDY    41  30  65 NW15G25   30.24R
$$
MNZ078>079-086>088-094>096-310400-
   Southeast Minnesota

CITY           SKY/WX    TMP DP  RH WIND       PRES   REMARKS
ROCHESTER      CLOUDY    41  29  62 N24G33    30.21R
RED WING       CLOUDY    41  25  52 N18G32    30.23R
STANTON        CLOUDY    41  23  48 NW17G25   30.25R
DODGE CENTER   CLOUDY    39  28  65 NW16G23   30.22R
WINONA         CLOUDY    43  30  61 N18G25    30.19R
AUSTIN         CLOUDY    43  30  61 N17G26    30.21R
PRESTON        CLOUDY    40  31  69 N17G26    30.18R
$$
ABBREVIATIONS USED IN REMARKS
   TC - TEMPERATURES IN CELSIUS
  WCI - WIND CHILL INDEX
   HX - HEAT INDEX
  VSB - VISIBILITY
$$



USA.gov is the U.S. government's official web portal to all federal, state and local government web resources and services.